Wind_Speed
23 23 24 25 26 26 24 24 23 24 24 24 25 24 24 24 23 23 22 21 20 20 19 18 18 18 18 18 17 16 15 15 14 13 13 13 12 12 12 12 11 11 10 10 10 10 10 10 10
25 25 26 27 27 26 25 24 24 25 25 25 26 26 26 25 24 24 23 22 21 21 20 19 19 19 19 19 19 18 17 16 15 15 14 14 13 13 13 13 12 12 12 11 11 11 11 11 11
27 27 27 28 28 27 26 25 25 25 26 26 26 26 26 25 25 24 24 23 23 22 22 21 20 20 20 20 20 19 18 17 16 16 16 15 15 15 14 14 13 13 13 13 13 13 12 12 12
27 27 28 28 28 27 26 26 25 25 26 26 25 25 26 25 25 24 24 24 23 23 23 22 21 21 21 20 20 20 19 17 17 17 17 16 16 15 15 15 15 14 14 14 14 14 14 14 13
27 27 27 28 27 26 27 26 26 25 25 25 25 24 24 24 25 24 24 23 23 23 23 23 22 22 23 22 21 21 20 19 18 18 18 18 17 17 16 16 16 16 16 16 16 16 16 15 15
26 26 26 26 25 26 26 25 25 25 24 25 25 24 24 24 24 24 24 24 24 24 24 24 24 23 24 23 22 21 21 20 20 19 19 19 19 18 18 18 17 17 17 17 17 17 17 17 16
25 26 25 25 24 25 26 26 25 24 24 25 25 25 24 24 24 24 24 25 25 25 25 25 25 25 25 24 23 22 21 21 21 20 20 20 20 19 19 19 19 19 18 18 17 17 18 18 18
25 26 26 25 24 25 26 26 25 25 25 25 25 24 24 24 24 24 25 25 26 26 25 24 25 25 26 25 24 23 22 22 21 21 21 21 21 20 20 20 20 20 19 18 18 17 18 18 19
25 25 25 24 24 24 25 25 25 24 24 24 24 24 23 25 25 25 25 26 26 26 25 24 25 25 25 25 24 23 22 22 21 21 21 22 22 22 21 21 21 21 20 19 19 19 19 19 20
24 24 23 23 22 22 23 23 23 23 23 23 23 23 23 24 25 25 25 26 27 27 26 25 25 25 25 25 25 24 23 22 22 22 23 23 23 23 22 23 23 22 22 21 21 21 21 21 20
23 23 22 22 22 21 22 22 22 22 21 21 22 22 22 23 25 25 25 26 26 27 27 25 26 27 27 26 25 25 24 23 22 22 23 23 24 24 24 23 24 23 23 23 22 23 22 22 22
22 22 22 22 22 21 21 21 21 21 20 21 22 22 22 23 24 25 25 26 27 27 27 25 25 26 27 27 27 26 25 24 23 23 24 24 25 25 25 25 25 25 24 24 24 23 23 23 23
20 21 21 21 21 21 20 20 20 19 20 21 21 21 21 23 24 26 26 27 27 27 26 26 25 27 28 28 27 27 25 24 24 25 24 25 25 26 26 26 26 26 25 23 23 24 24 25 25
20 20 20 21 21 21 20 20 20 19 20 21 21 21 21 21 23 24 24 25 26 26 26 27 26 25 25 26 26 27 26 25 25 25 25 25 25 26 27 27 26 26 25 25 24 26 26 26 26
19 20 19 20 21 21 21 20 19 19 20 21 20 21 20 20 20 22 24 24 25 26 26 26 26 26 26 27 28 28 27 26 26 27 27 26 26 26 27 28 27 27 27 27 26 26 27 27 27
19 20 19 19 20 21 22 21 20 20 20 20 20 19 20 20 20 21 23 24 24 25 27 27 25 26 26 27 28 29 27 27 27 28 28 28 28 27 27 28 28 28 28 27 27 26 26 27 28
20 20 20 20 20 21 22 22 22 21 21 20 20 20 20 20 19 20 22 23 23 24 25 26 27 26 26 26 27 27 27 26 27 27 27 27 28 28 28 28 29 29 29 29 28 27 27 28 29
21 21 21 21 21 21 22 22 22 22 21 21 21 21 21 21 20 21 22 23 24 26 26 27 27 27 27 27 27 28 27 27 27 27 27 28 28 28 28 29 30 30 30 31 31 30 29 30 30
21 21 21 22 22 22 22 22 22 22 22 22 21 22 22 22 22 22 23 24 23 25 26 27 27 27 28 26 26 28 28 28 28 29 29 29 30 29 29 29 30 31 31 32 32 32 31 31 31
22 22 22 22 22 22 22 22 22 23 23 23 23 23 23 23 23 23 24 25 25 24 25 26 27 27 28 27 26 27 29 30 30 29 30 31 31 31 30 31 32 33 33 33 34 34 35 35 34
23 23 23 23 23 23 23 22 22 23 23 24 24 24 24 23 24 24 25 25 25 26 26 26 27 28 28 28 28 29 29 29 29 29 31 32 32 32 32 33 34 35 35 35 36 35 35 35 36
24 23 23 23 24 24 24 24 22 22 23 23 24 24 24 24 24 25 25 25 25 26 26 27 27 28 28 28 28 29 28 29 29 29 30 32 33 33 33 34 35 36 36 36 37 37 37 36 37
25 24 24 24 25 24 23 24 22 22 22 22 22 23 24 24 25 25 26 27 26 26 27 27 27 27 28 28 28 29 29 29 30 30 30 31 32 33 34 34 35 36 37 38 39 38 37 37 38
26 26 26 26 26 26 23 24 23 22 22 22 23 23 24 25 25 26 26 26 26 26 26 27 28 28 28 29 29 30 30 30 30 31 31 32 32 33 34 33 34 36 37 38 39 38 38 39 40
27 27 27 28 28 27 25 25 24 22 23 23 23 24 24 24 25 26 26 26 26 26 26 28 28 29 29 30 30 30 31 31 32 32 32 32 32 33 33 34 34 36 37 38 39 40 40 41 42
28 28 28 29 29 28 27 27 25 23 23 24 24 25 25 25 26 26 26 27 26 26 28 28 29 29 30 31 32 32 32 33 33 33 33 33 33 34 34 35 35 35 36 37 39 40 40 42 44
30 30 29 30 30 29 29 27 25 24 24 24 25 25 26 26 27 27 27 28 27 27 28 29 29 30 30 31 32 32 33 33 34 34 34 34 35 35 36 36 37 37 38 39 40 41 42 43 44
31 31 31 31 32 31 30 28 26 25 24 25 26 26 27 28 28 28 29 29 29 29 29 30 30 30 31 31 32 33 34 34 35 36 36 36 36 37 37 37 38 39 40 41 42 43 44 45 46
34 34 33 33 34 33 32 30 28 27 27 27 28 28 28 29 30 30 30 31 31 31 31 31 31 32 33 33 34 34 36 37 37 38 38 38 39 40 39 40 41 42 42 43 44 45 46 47 48
37 36 35 35 35 35 35 33 31 30 30 29 29 29 29 30 31 31 31 32 33 33 33 34 34 34 35 36 37 37 38 39 39 40 41 41 41 42 42 43 44 44 45 46 46 47 48 48 49
Wind_Direction
257 259 260 261 261 262 262 263 262 262 260 260 260 259 258 257 255 253 251 248 244 245 244 243 241 241 240 238 237 238 239 241 241 243 244 243 243 244 245 246 248 249 252 254 256 258 260 261 261
258 259 261 262 262 263 263 263 262 261 261 261 260 259 257 255 254 252 250 247 244 242 242 243 241 241 240 239 238 238 240 241 242 243 244 243 243 244 246 249 250 251 252 254 257 259 260 261 263
260 260 261 262 263 265 265 264 262 261 262 262 260 258 256 253 252 252 249 246 243 241 240 242 242 240 239 240 241 239 239 240 242 243 244 245 244 245 247 249 250 251 252 253 255 259 263 264 265
261 261 261 261 263 264 264 264 263 262 262 261 259 257 255 253 251 249 247 244 241 239 239 240 241 240 239 240 240 239 238 239 241 242 244 245 245 245 246 247 248 250 253 255 255 258 262 265 266
262 261 261 261 262 263 264 263 262 260 260 259 258 257 255 253 250 247 244 241 239 238 239 239 240 240 239 239 240 239 239 240 242 243 244 244 245 245 245 246 248 250 253 256 257 257 260 264 266
260 261 261 262 262 263 263 262 262 261 260 259 258 256 254 253 250 246 242 239 237 236 237 239 240 240 239 238 240 241 241 242 243 244 245 244 245 246 246 247 248 250 252 255 258 258 260 262 264
260 262 262 262 262 262 263 261 261 261 260 259 258 256 253 252 249 244 241 238 235 235 236 238 241 240 239 240 240 241 242 243 243 244 244 244 244 244 245 246 247 250 252 255 257 259 260 261 262
260 262 262 262 261 262 262 260 259 260 259 258 257 255 253 250 247 244 241 237 235 235 235 236 239 239 238 238 239 240 242 243 243 245 245 243 243 244 244 245 248 249 251 253 255 258 261 261 262
259 262 261 262 261 261 262 260 260 260 258 257 258 257 254 251 247 244 241 237 234 233 232 233 235 238 238 238 238 239 241 242 242 244 244 244 243 245 246 246 247 249 251 253 255 258 261 262 262
260 261 262 261 261 260 261 260 260 260 258 258 258 257 254 250 244 242 241 239 235 232 234 234 234 236 239 239 238 238 242 244 243 244 246 246 246 245 248 248 248 249 251 253 255 258 261 262 262
260 261 261 259 259 260 260 259 260 259 257 259 260 258 253 249 244 241 240 239 238 236 235 233 234 235 238 240 240 240 241 243 242 244 247 248 247 246 248 249 249 251 253 253 256 258 259 262 263
262 262 261 259 258 259 259 259 259 259 255 256 257 255 252 248 244 241 238 237 237 236 234 235 236 236 237 239 240 241 240 242 243 245 249 250 249 249 249 250 251 251 253 254 255 256 259 262 264
262 263 263 259 258 256 256 259 259 258 256 256 257 254 250 247 244 243 240 237 237 237 236 237 236 238 240 238 240 241 242 243 244 247 249 250 250 250 249 250 252 252 251 253 254 256 259 262 263
263 264 263 261 257 256 257 258 259 256 257 258 258 254 247 246 244 242 240 237 236 237 236 236 233 236 239 238 240 242 243 245 245 248 251 252 250 249 249 250 252 251 250 252 254 257 258 261 264
265 262 262 261 258 257 259 258 259 257 256 257 256 250 243 243 243 241 238 236 238 240 238 235 233 236 239 237 239 241 243 245 248 250 252 253 251 251 251 251 251 251 252 253 255 257 256 258 262
263 259 259 260 258 258 260 259 259 260 257 257 253 248 242 244 245 243 241 238 240 242 240 238 238 240 241 238 240 242 244 247 249 251 253 252 253 253 253 251 250 252 253 253 255 256 256 259 261
261 259 257 259 259 259 260 259 257 260 256 253 249 245 243 245 246 245 242 240 244 243 240 242 241 243 242 241 241 243 245 248 250 251 251 250 251 253 253 252 251 251 252 253 253 254 255 259 260
263 261 258 259 261 260 261 261 258 257 256 253 249 248 246 246 247 248 246 245 249 246 244 246 245 247 246 244 244 244 245 248 249 250 250 249 250 252 252 252 251 251 252 253 254 255 257 260 261
263 262 260 259 261 262 263 262 261 258 255 252 250 248 247 249 251 250 250 249 252 250 247 247 247 248 247 246 245 244 246 247 251 252 251 250 251 252 253 253 252 251 252 254 255 255 257 260 262
259 260 260 258 260 263 265 263 260 258 255 251 250 248 247 249 251 250 250 249 251 251 250 250 248 248 247 248 247 246 246 250 251 250 251 251 252 252 254 254 253 253 253 255 257 258 259 262 264
257 259 260 260 260 262 265 263 258 258 256 254 252 251 248 248 250 250 250 250 251 251 252 250 249 249 250 251 252 252 252 251 248 249 251 251 251 252 255 256 256 255 255 257 258 260 262 263 264
257 259 260 260 262 263 264 264 257 257 257 256 255 252 250 252 253 252 253 252 251 251 251 250 251 252 254 254 255 253 253 251 249 251 253 252 252 253 256 256 257 257 257 258 259 261 263 264 265
259 258 258 260 261 261 262 263 257 256 254 255 255 253 254 255 254 253 253 254 253 252 249 251 254 255 255 255 255 254 253 252 251 252 254 255 255 256 258 259 259 259 259 260 260 263 264 266 267
259 258 258 258 259 260 260 263 259 256 255 254 254 254 254 255 254 253 255 254 254 253 252 253 255 256 256 255 255 254 256 256 256 256 256 257 257 258 259 259 260 261 262 262 262 264 265 267 268
256 255 257 258 259 259 259 261 260 257 256 255 255 254 254 255 255 254 255 253 253 252 253 254 256 258 257 256 257 257 258 260 260 260 260 259 259 260 261 262 263 262 263 263 263 264 266 268 269
255 254 256 259 261 260 259 259 260 259 257 255 255 255 254 256 256 255 255 255 256 254 254 256 259 261 258 258 259 260 261 261 260 260 260 260 261 263 264 265 264 263 264 265 266 267 268 270 271
253 253 254 258 259 259 258 258 257 257 256 254 254 255 255 256 256 257 257 257 258 257 257 258 262 262 260 259 261 262 261 261 261 261 260 260 261 263 265 264 266 267 267 268 269 269 270 272 272
252 253 253 255 258 259 258 259 259 257 257 256 256 256 256 257 257 258 259 259 259 259 259 261 263 263 261 260 262 265 263 263 263 262 262 262 263 266 267 266 267 268 268 269 270 271 272 273 273
251 251 251 253 256 258 259 260 261 260 259 258 258 258 257 258 257 257 258 259 260 261 262 262 264 265 265 264 266 267 264 263 263 263 262 263 264 266 267 268 268 269 269 270 272 273 274 275 275
250 250 251 253 255 257 258 259 260 261 260 260 260 259 259 260 258 257 258 260 261 262 264 264 266 267 267 267 268 268 266 265 264 264 263 265 266 266 267 269 270 270 271 272 273 275 276 276 277
Height
5810 5811 5811 5812 5812 5811 5812 5813 5813 5814 5814 5815 5815 5816 5817 5819 5821 5825 5825 5825 5827 5829 5830 5832 5834 5836 5837 5839 5841 5843 5844 5846 5847 5848 5850 5851 5852 5854 5855 5856 5857 5859 5860 5861 5862 5863 5864 5864 5865
5804 5805 5806 5805 5804 5805 5807 5807 5807 5807 5808 5808 5809 5810 5811 5812 5814 5816 5818 5820 5822 5824 5826 5828 5830 5832 5834 5836 5837 5839 5841 5842 5844 5846 5847 5848 5850 5851 5852 5854 5855 5856 5858 5859 5860 5861 5861 5862 5863
5798 5798 5799 5798 5798 5799 5800 5800 5800 5800 5801 5802 5802 5803 5804 5806 5808 5811 5813 5815 5817 5820 5822 5824 5826 5828 5830 5832 5834 5836 5837 5839 5841 5842 5844 5846 5847 5848 5850 5851 5852 5854 5855 5856 5857 5858 5859 5860 5861
5792 5792 5792 5792 5791 5793 5793 5793 5793 5794 5794 5795 5796 5797 5798 5801 5803 5805 5807 5810 5812 5815 5817 5819 5822 5824 5826 5828 5830 5832 5833 5835 5837 5839 5841 5842 5844 5845 5847 5848 5850 5851 5852 5853 5855 5856 5857 5858 5858
5785 5785 5785 5784 5785 5786 5786 5786 5786 5787 5788 5789 5789 5791 5793 5795 5796 5799 5801 5804 5807 5810 5812 5815 5817 5819 5821 5823 5825 5828 5830 5831 5833 5835 5837 5839 5840 5842 5843 5845 5847 5848 5849 5851 5852 5853 5854 5855 5856
5778 5778 5778 5778 5779 5779 5779 5779 5780 5780 5781 5782 5783 5784 5787 5789 5790 5793 5795 5798 5801 5805 5807 5810 5812 5814 5815 5818 5821 5823 5825 5827 5829 5831 5833 5835 5836 5838 5840 5841 5843 5844 5846 5847 5848 5849 5850 5851 5852
5772 5771 5771 5772 5772 5772 5773 5772 5773 5774 5775 5776 5776 5778 5781 5783 5785 5787 5790 5792 5795 5799 5802 5805 5807 5810 5811 5813 5816 5818 5821 5823 5825 5826 5828 5830 5832 5834 5835 5837 5839 5841 5842 5843 5845 5846 5847 5848 5849
5764 5765 5765 5765 5766 5766 5766 5766 5766 5767 5768 5769 5770 5772 5775 5777 5779 5781 5784 5786 5790 5793 5796 5800 5802 5804 5805 5808 5810 5813 5816 5818 5820 5822 5824 5826 5828 5829 5831 5833 5835 5836 5838 5839 5841 5842 5843 5844 5845
5758 5759 5759 5759 5760 5760 5760 5760 5760 5760 5761 5762 5764 5766 5768 5770 5773 5776 5778 5780 5783 5787 5790 5793 5796 5798 5800 5803 5805 5808 5810 5812 5814 5817 5819 5821 5823 5825 5827 5828 5830 5832 5834 5835 5837 5838 5839 5840 5841
5751 5752 5754 5754 5754 5754 5754 5754 5754 5754 5755 5756 5758 5759 5761 5764 5766 5770 5773 5775 5778 5781 5784 5787 5790 5792 5795 5798 5800 5803 5805 5807 5809 5811 5814 5816 5818 5820 5822 5824 5825 5827 5829 5831 5832 5833 5834 5835 5836
5745 5747 5748 5748 5748 5748 5748 5748 5748 5749 5750 5751 5752 5754 5755 5758 5761 5764 5767 5770 5773 5776 5778 5782 5784 5787 5789 5792 5795 5798 5800 5802 5804 5806 5808 5810 5812 5815 5817 5818 5820 5822 5824 5826 5827 5829 5830 5831 5832
5741 5742 5742 5742 5742 5742 5742 5742 5743 5743 5745 5745 5746 5748 5751 5753 5756 5759 5761 5764 5767 5770 5773 5776 5778 5781 5784 5787 5790 5793 5795 5797 5799 5801 5803 5805 5807 5809 5811 5813 5815 5817 5819 5820 5822 5824 5825 5826 5827
5736 5737 5737 5737 5737 5737 5737 5737 5738 5739 5740 5740 5741 5743 5745 5748 5750 5753 5756 5758 5761 5764 5767 5769 5773 5776 5779 5781 5784 5787 5790 5792 5794 5796 5798 5800 5802 5804 5806 5808 5810 5811 5813 5815 5817 5818 5820 5821 5822
5732 5732 5732 5732 5732 5733 5733 5733 5733 5735 5735 5736 5737 5738 5740 5743 5745 5748 5750 5753 5756 5758 5761 5764 5767 5770 5773 5776 5779 5782 5784 5787 5789 5791 5793 5795 5797 5798 5800 5802 5804 5806 5808 5809 5811 5813 5814 5815 5816
5727 5728 5728 5728 5728 5728 5729 5729 5730 5730 5731 5732 5733 5734 5736 5738 5740 5743 5745 5747 5750 5753 5756 5759 5761 5764 5768 5770 5773 5776 5778 5781 5784 5786 5788 5789 5791 5792 5794 5796 5798 5800 5802 5804 5805 5807 5808 5810 5811
5723 5723 5723 5724 5724 5725 5726 5726 5727 5726 5726 5728 5728 5730 5732 5733 5735 5738 5740 5743 5745 5748 5751 5754 5756 5759 5762 5765 5768 5770 5773 5775 5777 5779 5781 5783 5785 5787 5788 5790 5791 5793 5795 5797 5799 5801 5802 5804 5805
5718 5718 5719 5720 5720 5720 5721 5722 5723 5722 5722 5724 5725 5726 5728 5730 5731 5734 5736 5738 5740 5743 5745 5748 5751 5753 5757 5759 5762 5764 5766 5769 5771 5773 5775 5777 5779 5780 5782 5783 5785 5787 5789 5791 5793 5794 5796 5797 5798
5714 5715 5716 5716 5716 5716 5716 5718 5719 5718 5719 5720 5721 5722 5724 5726 5728 5729 5732 5734 5736 5738 5740 5743 5745 5747 5750 5753 5756 5758 5760 5762 5764 5767 5768 5770 5772 5774 5775 5776 5778 5780 5782 5784 5786 5788 5789 5791 5792
5710 5711 5711 5712 5712 5712 5712 5713 5714 5714 5715 5716 5717 5719 5721 5722 5724 5725 5727 5730 5731 5733 5736 5738 5740 5742 5745 5747 5749 5752 5754 5756 5758 5760 5762 5763 5765 5767 5768 5770 5771 5773 5775 5777 5779 5781 5782 5783 5785
5705 5705 5706 5707 5707 5707 5708 5708 5709 5709 5710 5712 5713 5715 5717 5718 5719 5721 5723 5725 5726 5728 5730 5732 5734 5736 5738 5740 5743 5745 5747 5749 5751 5752 5754 5756 5758 5760 5762 5763 5764 5766 5768 5770 5771 5773 5774 5776 5777
5700 5701 5702 5702 5703 5702 5703 5704 5705 5705 5706 5708 5709 5711 5712 5714 5715 5717 5718 5720 5722 5723 5725 5726 5728 5730 5732 5734 5736 5738 5739 5740 5742 5744 5747 5749 5751 5753 5755 5756 5757 5759 5761 5762 5764 5765 5767 5768 5769
5695 5696 5696 5697 5697 5698 5699 5699 5702 5701 5702 5704 5705 5707 5708 5709 5710 5712 5713 5715 5716 5718 5719 5721 5723 5724 5726 5727 5729 5731 5732 5734 5736 5738 5740 5742 5743 5745 5747 5748 5749 5751 5753 5754 5756 5757 5758 5759 5760
5690 5690 5691 5691 5692 5693 5694 5694 5697 5697 5698 5700 5701 5702 5703 5704 5705 5706 5708 5709 5710 5712 5714 5715 5717 5718 5720 5721 5723 5724 5726 5728 5729 5731 5733 5735 5736 5738 5740 5741 5742 5743 5745 5746 5747 5748 5749 5750 5751
5683 5684 5685 5685 5686 5687 5689 5689 5691 5693 5694 5695 5696 5697 5697 5699 5700 5701 5702 5703 5704 5706 5708 5710 5711 5712 5713 5715 5716 5717 5719 5721 5722 5724 5725 5727 5729 5730 5732 5733 5734 5735 5736 5737 5738 5739 5740 5741 5742
5677 5679 5679 5679 5679 5682 5684 5683 5686 5688 5689 5690 5691 5691 5692 5693 5694 5696 5696 5698 5699 5701 5702 5704 5705 5706 5707 5708 5709 5711 5712 5713 5715 5716 5718 5719 5721 5722 5723 5725 5725 5727 5728 5728 5729 5730 5731 5731 5732
5671 5672 5674 5674 5674 5676 5677 5678 5682 5683 5684 5684 5685 5686 5687 5688 5689 5690 5691 5692 5694 5695 5696 5697 5698 5699 5700 5701 5702 5703 5704 5705 5706 5708 5709 5711 5712 5713 5715 5716 5717 5718 5718 5719 5720 5720 5720 5721 5721
5664 5665 5667 5668 5668 5669 5670 5673 5676 5677 5678 5678 5679 5680 5681 5682 5683 5684 5685 5686 5687 5688 5689 5690 5691 5691 5692 5693 5694 5695 5697 5697 5699 5700 5701 5702 5703 5705 5706 5707 5708 5708 5709 5709 5710 5710 5710 5710 5710
5656 5658 5659 5660 5661 5662 5664 5667 5670 5671 5672 5673 5673 5674 5675 5675 5676 5677 5678 5680 5681 5681 5682 5683 5684 5684 5685 5685 5686 5687 5688 5689 5690 5691 5692 5693 5695 5696 5697 5697 5698 5698 5698 5699 5699 5699 5698 5698 5698
5649 5650 5651 5652 5654 5656 5657 5663 5663 5664 5666 5666 5667 5667 5668 5669 5670 5671 5672 5672 5673 5674 5675 5676 5676 5676 5677 5677 5678 5678 5679 5680 5681 5682 5683 5684 5685 5685 5686 5687 5687 5687 5687 5687 5687 5687 5686 5686 5685
5639 5641 5643 5645 5647 5648 5650 5657 5656 5657 5658 5658 5659 5660 5661 5661 5662 5663 5664 5665 5666 5666 5667 5667 5668 5668 5668 5669 5669 5670 5670 5671 5671 5672 5672 5673 5674 5674 5675 5675 5675 5675 5675 5675 5674 5674 5673 5673 5672